User: anonymous   Login
Location: Radomski Observatory
(40.2854°N, 79.5145°W)
Time: 03:52:46
(UTC-05:00)
Language:

Uosat F - Orbit

View from above orbital plane
View from above orbital plane
View from above satellite
View from above satellite

Ground track
Ground track

The orbit data is extracted from the following two-line orbital elements,

1 21575U 91050B   16043.22580388  .00000126  00000-0  53987-4 0  9990
2 21575  98.7573  41.7628 0006693 328.9322  31.1469 14.40714309290583
Epoch (UTC): 12 February 2016 05:25:09
Eccentricity: 0.0006693
inclination: 98.7573°
perigee height: 751 km
apogee height: 761 km
right ascension of ascending node: 41.7628°
argument of perigee: 328.9322°
revolutions per day: 14.40714309
mean anomaly at epoch: 31.1469°
orbit number at epoch: 29058

The dashed part of the orbit path shows where the satellite is in the earth's shadow,  

DLR